DW3753 Weather Reports


Display with metric or nautical units.
time (UTC)temp
F
wind
direction
speed
MPH
gust
MPH
rain 1hr
in
rain 24hr
in
rain mn
in
humidity
%
barometer
mb
20260508113107 61 202 3.0 6.0 0.00 0.36 0.36 88 1013.2
20260508112108 60 150 1.0 3.0 0.00 0.36 0.36 88 1012.5
20260508111108 60 150 1.0 4.0 0.00 0.36 0.36 88 1012.5
20260508110108 60 155 1.0 4.0 0.04 0.36 0.36 88 1012.3
20260508105107 60 166 0.0 3.0 0.19 0.36 0.36 87 1012.4
20260508104106 60 211 0.0 1.0 0.19 0.36 0.36 87 1012.4
20260508103104 60 223 0.0 1.0 0.19 0.36 0.36 87 1012.3
20260508102106 60 223 0.0 0.0 0.19 0.36 0.36 87 1012.2
20260508101105 60 223 0.0 0.0 0.19 0.36 0.36 87 1012.1
20260508095103 60 216 1.0 3.0 0.00 0.17 0.18 86 1012.5
20260508094107 60 137 0.0 2.0 0.00 0.17 0.17 86 1012.1
20260508093113 60 137 0.0 2.0 0.00 0.17 0.17 86 1012.0
20260508092103 60 103 0.0 1.0 0.00 0.17 0.17 86 1012.1
20260508091103 60 78 0.0 0.0 0.00 0.17 0.17 86 1012.2
20260508090106 60 78 0.0 0.0 0.00 0.17 0.17 85 1012.0
20260508085103 60 78 0.0 0.0 0.00 0.17 0.17 85 1012.3
20260508084101 60 78 0.0 0.0 0.00 0.17 0.17 85 1012.4
20260508083056 60 78 0.0 0.0 0.00 0.17 0.17 85 1012.2
20260508082056 60 78 0.0 0.0 0.00 0.17 0.17 84 1012.4
20260508081529 60 78 0.0 0.0 0.00 0.17 0.17 84 1012.5
20260508080052 60 78 0.0 2.0 0.00 0.17 0.17 84 1012.9
20260508075538 60 78 0.0 1.0 0.04 0.17 0.17 84 1012.7
20260508074050 60 78 0.0 2.0 0.16 0.17 0.17 84 1012.4
20260508073050 60 273 0.0 1.0 0.17 0.17 0.17 83 1012.4
20260508072050 60 273 0.0 2.0 0.17 0.17 0.17 83 1013.1
20260508071053 60 273 0.0 2.0 0.17 0.17 0.17 83 1013.6
20260508070049 60 273 1.0 2.0 0.17 0.17 0.17 82 1013.6
20260508065533 61 261 4.0 10.0 0.13 0.13 0.13 80 1014.0
20260508064522 62 237 1.0 3.0 0.01 0.01 0.02 77 1013.8
20260508063050 62 167 0.0 0.0 0.00 0.00 0.00 77 1013.3
20260508062051 62 167 0.0 0.0 0.00 0.00 0.00 77 1013.7
20260508061054 62 167 0.0 1.0 0.00 0.00 0.00 77 1013.7
20260508060051 62 167 0.0 0.0 0.00 0.00 0.00 76 1013.8
20260508055050 62 167 0.0 3.0 0.00 0.00 0.00 75 1013.5
20260508054049 62 178 2.0 5.0 0.00 0.00 0.00 75 1013.9
20260508053533 62 179 2.0 4.0 0.00 0.00 0.00 74 1014.0
20260508052535 62 166 0.0 3.0 0.00 0.00 0.00 72 1013.8
20260508051049 62 166 0.0 1.0 0.00 0.00 0.00 71 1013.7
20260508050530 62 166 0.0 1.0 0.00 0.00 0.00 70 1013.7
20260508045538 62 166 0.0 0.0 0.00 0.00 0.00 70 1013.8
20260508044047 62 166 0.0 0.0 0.00 0.00 0.00 69 1013.7
20260508043046 62 166 0.0 1.0 0.00 0.00 0.00 69 1013.9
20260508042050 62 166 0.0 3.0 0.00 0.00 0.00 71 1013.8
20260508041047 62 166 0.0 0.0 0.00 0.00 0.00 70 1013.6
20260508040048 62 166 0.0 0.0 0.00 0.00 0.00 70 1013.7
20260508035048 62 166 0.0 0.0 0.00 0.00 0.00 69 1013.6
20260508034530 63 166 0.0 0.0 0.00 0.00 0.00 69 1013.6
20260508033049 63 166 0.0 0.0 0.00 0.00 0.00 69 1013.4
20260508032048 63 166 0.0 1.0 0.00 0.00 0.00 70 1013.5
20260508031522 64 166 0.0 0.0 0.00 0.00 0.00 70 1013.4
20260508030537 64 166 0.0 1.0 0.00 0.00 0.00 68 1013.3
20260508025049 64 166 0.0 1.0 0.00 0.00 0.00 68 1013.2
20260508024540 64 166 0.0 3.0 0.00 0.00 0.00 68 1013.1
20260508023048 64 176 1.0 4.0 0.00 0.00 0.00 68 1013.0
20260508022051 64 183 1.0 3.0 0.00 0.00 0.00 68 1012.9
20260508021046 65 184 2.0 4.0 0.00 0.00 0.00 67 1012.8
20260508020048 65 189 2.0 5.0 0.00 0.00 0.00 66 1012.8
20260508015048 65 182 3.0 6.0 0.00 0.00 0.00 66 1012.9
20260508014048 66 187 3.0 8.0 0.00 0.00 0.00 65 1012.7
20260508013048 66 182 3.0 5.0 0.00 0.00 0.00 64 1012.7
20260508012526 66 186 2.0 6.0 0.00 0.00 0.00 63 1012.8
20260508011051 67 170 2.0 6.0 0.00 0.00 0.00 62 1012.6
20260508010518 67 153 3.0 6.0 0.00 0.00 0.00 61 1012.7
20260508005536 67 186 5.0 8.0 0.00 0.00 0.00 60 1012.8
20260508004046 68 165 5.0 10.0 0.00 0.00 0.00 58 1012.8
20260508003045 69 180 2.0 7.0 0.00 0.00 0.00 56 1012.5
20260508002048 69 195 3.0 6.0 0.00 0.00 0.00 55 1012.8
20260508001044 70 182 3.0 5.0 0.00 0.00 0.00 55 1012.8
20260508000044 70 185 3.0 7.0 0.00 0.00 0.00 55 1012.8
20260507235526 70 178 4.0 9.0 0.00 0.00 0.00 53 1013.0
20260507234044 70 170 5.0 9.0 0.00 0.00 0.00 54 1013.1
20260507233524 70 186 4.0 8.0 0.00 0.00 0.00 54 1013.0
20260507232042 70 185 5.0 8.0 0.00 0.00 0.00 54 1013.0
20260507231043 70 203 5.0 9.0 0.00 0.00 0.00 53 1013.1
20260507230044 71 217 5.0 9.0 0.00 0.00 0.00 53 1013.0
20260507225038 71 184 4.0 8.0 0.00 0.00 0.00 54 1013.2
20260507224039 71 194 5.0 9.0 0.00 0.00 0.00 53 1013.2
20260507223038 71 200 6.0 11.0 0.00 0.00 0.00 54 1013.2
20260507222040 71 182 4.0 8.0 0.00 0.00 0.00 53 1013.3
20260507221038 72 78 0.0 3.0 0.00 0.00 0.00 49 1013.3
20260507220039 72 75 1.0 5.0 0.00 0.00 0.00 49 1013.4
20260507215038 72 85 1.0 5.0 0.00 0.00 0.00 49 1013.3
20260507214038 72 93 1.0 4.0 0.00 0.00 0.00 49 1013.6
20260507213038 72 82 0.0 3.0 0.00 0.00 0.00 50 1013.7
20260507212040 72 69 1.0 3.0 0.00 0.00 0.00 50 1013.9
20260507211038 72 113 1.0 4.0 0.00 0.00 0.00 48 1013.9
20260507210042 73 163 1.0 5.0 0.00 0.00 0.00 48 1014.2
20260507205043 73 191 2.0 8.0 0.00 0.00 0.00 48 1014.2
20260507204039 73 63 1.0 6.0 0.00 0.00 0.00 50 1014.2
20260507203044 72 59 1.0 7.0 0.00 0.00 0.00 49 1014.0
20260507202040 72 60 1.0 5.0 0.00 0.00 0.00 50 1014.0
20260507201039 73 50 1.0 7.0 0.00 0.00 0.00 49 1014.2
20260507200040 73 0 1.0 6.0 0.00 0.00 0.00 50 1014.4
20260507195520 72 9 2.0 10.0 0.00 0.00 0.00 52 1014.7
20260507194043 72 55 2.0 11.0 0.00 0.00 0.00 50 1014.6
20260507193043 71 71 3.0 10.0 0.00 0.00 0.00 52 1014.8
20260507192042 72 9 2.0 6.0 0.00 0.00 0.00 53 1015.1
20260507191039 71 69 2.0 7.0 0.00 0.00 0.00 52 1015.3
20260507190038 70 5 2.0 10.0 0.00 0.00 0.00 52 1015.5
20260507185040 71 63 2.0 9.0 0.00 0.00 0.00 53 1015.6
20260507184040 70 322 3.0 10.0 0.00 0.00 0.00 55 1015.5
20260507183036 69 341 3.0 10.0 0.00 0.00 0.00 54 1015.6
20260507182036 69 49 4.0 11.0 0.00 0.00 0.00 54 1015.8
20260507181036 69 71 2.0 9.0 0.00 0.00 0.00 54 1015.8
20260507180035 69 355 2.0 9.0 0.00 0.00 0.00 52 1015.9
20260507175036 69 350 3.0 11.0 0.00 0.00 0.00 53 1016.2
20260507174036 68 355 2.0 9.0 0.00 0.00 0.00 56 1016.3
20260507173035 67 74 3.0 8.0 0.00 0.00 0.00 53 1016.4
20260507172039 67 5 2.0 8.0 0.00 0.00 0.00 56 1016.8
20260507171035 67 59 3.0 10.0 0.00 0.00 0.00 55 1017.2
20260507170520 66 84 2.0 9.0 0.00 0.00 0.00 58 1017.4
20260507165036 66 63 2.0 8.0 0.00 0.00 0.00 57 1017.6
20260507164034 65 15 3.0 10.0 0.00 0.00 0.00 60 1017.7
20260507163036 65 57 1.0 12.0 0.00 0.00 0.00 59 1017.7
20260507162036 65 67 2.0 8.0 0.00 0.00 0.00 60 1017.7
20260507161036 65 42 2.0 7.0 0.00 0.00 0.00 61 1017.8
20260507160038 64 12 1.0 4.0 0.00 0.00 0.00 62 1017.6
20260507155035 64 17 1.0 4.0 0.00 0.00 0.00 62 1017.7
20260507154527 63 59 2.0 9.0 0.00 0.00 0.00 65 1017.8
20260507153036 63 73 2.0 8.0 0.00 0.00 0.00 64 1017.9
20260507152036 63 315 1.0 9.0 0.00 0.00 0.00 67 1017.9
20260507151036 62 24 2.0 7.0 0.00 0.00 0.00 69 1018.1
20260507150034 62 78 2.0 8.0 0.00 0.01 0.00 69 1018.2
20260507145515 61 47 1.0 8.0 0.00 0.03 0.00 72 1018.2
20260507144034 60 68 2.0 6.0 0.00 0.03 0.00 76 1018.2
20260507143507 60 325 1.0 4.0 0.00 0.03 0.00 78 1018.3
20260507142034 59 355 2.0 6.0 0.00 0.03 0.00 81 1018.4
20260507141032 58 350 3.0 8.0 0.00 0.03 0.00 83 1018.4
20260507140035 56 336 4.0 8.0 0.00 0.03 0.00 83 1018.3
20260507135033 55 329 4.0 6.0 0.00 0.03 0.00 84 1018.5
20260507134034 55 332 4.0 6.0 0.00 0.03 0.00 87 1018.6
20260507133032 54 313 4.0 8.0 0.00 0.03 0.00 87 1018.6
20260507133002 54 342 3.0 8.0 0.00 0.03 0.00 88 1018.6
20260507131030 53 315 3.0 6.0 0.00 0.03 0.00 88 1018.5
20260507130028 53 323 3.0 6.0 0.00 0.03 0.00 88 1018.6
20260507125031 53 333 1.0 3.0 0.00 0.03 0.00 88 1018.4
20260507124028 53 304 1.0 2.0 0.00 0.03 0.00 88 1018.2
20260507123028 52 340 2.0 4.0 0.00 0.03 0.00 88 1018.1
20260507122028 52 318 2.0 4.0 0.00 0.03 0.00 88 1018.1
20260507121028 52 314 1.0 2.0 0.00 0.03 0.00 88 1018.2
20260507120503 52 317 2.0 4.0 0.00 0.03 0.00 87 1018.1
20260507115024 52 343 3.0 5.0 0.00 0.03 0.00 87 1017.8
20260507114023 52 335 3.0 6.0 0.00 0.03 0.00 87 1017.7